Zurück zum Katalog

SL-14 DEB

AktivPO
NORAD 19232·DEBRIS·🇷🇺 Russia

Gestartet Oct 26, 1978 von Plesetsk Cosmodrome

Loading…

Nächste Überflüge (nächste 24 Stunden)

TLE

AktuellSource: Space-Track

Epoche: Sep 13, 2026, 08:06 UTC

1 19232U 78100AB  26256.33814825  .00000000  00000-0 -14561-3 0  9999
2 19232  82.3320 218.4572 0189662 164.1620 351.4480 11.67585269633331

Verfolge SL-14 DEB in Echtzeit mit AllMySat

Download on the App Store